Location: Bli��� Lhota
(48.7570°N, 14.0120°E)
Time: 05:15:52
(UTC+00:00)

Lacrosse 5 rocket - Pass Details

Date: 18 September 2020
Orbit: 461 x 635 km, 57.0° (Epoch: 22 October)

Event Time Altitude Azimuth Distance (km) Brightness Sun altitude
Rises 21:27:29 0° 303° (WNW) 2,854 5.7 -36.1°
Reaches altitude 10° 21:29:50 10° 310° (NW) 1,972 4.8 -36.3°
Enters shadow 21:30:47 16° 315° (NW) 1,634 4.3 -36.4°
